TimeCST,TemperatureF,Dew PointF,Humidity,Sea Level PressureIn,VisibilityMPH,Wind Direction,Wind SpeedMPH,Gust SpeedMPH,PrecipitationIn,Events,Conditions,WindDirDegrees,DateUTC
12:15 AM,55.4,41.0,58,29.98,10.0,South,9.2,-,N/A,,Clear,170,2012-11-09 06:15:00
12:35 AM,55.4,41.0,58,29.98,10.0,South,9.2,-,N/A,,Clear,170,2012-11-09 06:35:00
12:55 AM,55.4,41.0,58,29.98,10.0,South,10.4,-,N/A,,Clear,170,2012-11-09 06:55:00
1:15 AM,55.4,42.8,63,29.98,10.0,South,8.1,-,N/A,,Clear,170,2012-11-09 07:15:00
1:35 AM,55.4,42.8,63,29.98,10.0,South,9.2,-,N/A,,Clear,170,2012-11-09 07:35:00
1:55 AM,55.4,42.8,63,29.97,10.0,South,8.1,-,N/A,,Clear,170,2012-11-09 07:55:00
2:16 AM,55.4,42.8,63,29.97,10.0,South,8.1,-,N/A,,Clear,170,2012-11-09 08:16:00
2:35 AM,55.4,42.8,63,29.97,10.0,South,9.2,-,N/A,,Clear,170,2012-11-09 08:35:00
2:55 AM,55.4,42.8,63,29.97,10.0,South,9.2,-,N/A,,Clear,170,2012-11-09 08:55:00
3:15 AM,55.4,42.8,63,29.97,10.0,South,9.2,-,N/A,,Clear,170,2012-11-09 09:15:00
3:35 AM,55.4,44.6,67,29.97,10.0,South,9.2,-,N/A,,Clear,180,2012-11-09 09:35:00
3:55 AM,55.4,44.6,67,29.97,10.0,South,9.2,-,N/A,,Clear,180,2012-11-09 09:55:00
4:15 AM,57.2,44.6,63,29.97,10.0,South,8.1,-,N/A,,Clear,180,2012-11-09 10:15:00
4:55 AM,57.2,46.4,67,29.98,10.0,South,9.2,-,N/A,,Clear,180,2012-11-09 10:55:00
5:35 AM,57.2,46.4,67,29.99,10.0,South,10.4,-,N/A,,Clear,190,2012-11-09 11:35:00
6:15 AM,57.2,48.2,72,29.99,10.0,South,10.4,16.1,N/A,,Clear,190,2012-11-09 12:15:00
6:35 AM,57.2,48.2,72,29.99,10.0,South,11.5,17.3,N/A,,Clear,190,2012-11-09 12:35:00
7:15 AM,57.2,50.0,77,30.00,10.0,South,11.5,18.4,N/A,,Clear,190,2012-11-09 13:15:00
7:35 AM,59.0,51.8,77,30.00,10.0,South,11.5,17.3,N/A,,Scattered Clouds,190,2012-11-09 13:35:00
7:55 AM,60.8,51.8,72,30.00,10.0,South,13.8,20.7,N/A,,Mostly Cloudy,190,2012-11-09 13:55:00
9:35 AM,64.4,55.4,73,30.01,10.0,South,10.4,18.4,N/A,,Clear,190,2012-11-09 15:35:00
9:55 AM,66.2,55.4,68,30.01,10.0,SSW,15.0,19.6,N/A,,Clear,200,2012-11-09 15:55:00
10:35 AM,69.8,55.4,60,30.02,10.0,SSW,17.3,27.6,N/A,,Clear,200,2012-11-09 16:35:00
10:55 AM,69.8,55.4,60,30.01,10.0,SSW,17.3,23.0,N/A,,Clear,200,2012-11-09 16:55:00
11:35 AM,69.8,55.4,60,29.99,10.0,SSW,18.4,24.2,N/A,,Clear,210,2012-11-09 17:35:00
11:55 AM,69.8,55.4,60,29.98,10.0,SSW,15.0,21.9,N/A,,Clear,210,2012-11-09 17:55:00
12:15 PM,69.8,55.4,60,29.97,10.0,SSW,17.3,-,N/A,,Clear,200,2012-11-09 18:15:00
12:35 PM,71.6,55.4,57,29.96,10.0,SSW,16.1,21.9,N/A,,Clear,200,2012-11-09 18:35:00
1:15 PM,71.6,55.4,57,29.94,10.0,South,15.0,21.9,N/A,,Clear,190,2012-11-09 19:15:00
1:35 PM,71.6,55.4,57,29.93,10.0,South,16.1,24.2,N/A,,Clear,190,2012-11-09 19:35:00
1:55 PM,71.6,55.4,57,29.93,10.0,South,18.4,24.2,N/A,,Clear,180,2012-11-09 19:55:00
2:15 PM,73.4,55.4,53,29.92,10.0,South,15.0,23.0,N/A,,Partly Cloudy,180,2012-11-09 20:15:00
2:35 PM,73.4,55.4,53,29.91,10.0,South,17.3,24.2,N/A,,Partly Cloudy,190,2012-11-09 20:35:00
3:15 PM,73.4,55.4,53,29.91,10.0,South,17.3,24.2,N/A,,Clear,180,2012-11-09 21:15:00
3:35 PM,71.6,55.4,57,29.91,10.0,South,13.8,21.9,N/A,,Clear,190,2012-11-09 21:35:00
3:55 PM,71.6,55.4,57,29.91,10.0,South,16.1,24.2,N/A,,Clear,190,2012-11-09 21:55:00
4:15 PM,71.6,55.4,57,29.91,10.0,SSW,17.3,23.0,N/A,,Clear,200,2012-11-09 22:15:00
4:35 PM,69.8,55.4,60,29.91,10.0,South,12.7,17.3,N/A,,Clear,190,2012-11-09 22:35:00
4:55 PM,69.8,53.6,56,29.90,10.0,South,11.5,17.3,N/A,,Clear,180,2012-11-09 22:55:00
5:55 PM,66.2,53.6,64,29.92,10.0,South,8.1,17.3,N/A,,Clear,180,2012-11-09 23:55:00
6:15 PM,66.2,53.6,64,29.92,10.0,South,10.4,16.1,N/A,,Clear,170,2012-11-10 00:15:00
6:36 PM,66.2,53.6,64,29.92,10.0,South,12.7,-,N/A,,Clear,170,2012-11-10 00:36:00
6:55 PM,66.2,53.6,64,29.92,10.0,South,9.2,18.4,N/A,,Clear,170,2012-11-10 00:55:00
7:15 PM,66.2,53.6,64,29.92,10.0,South,12.7,20.7,N/A,,Clear,170,2012-11-10 01:15:00
7:55 PM,66.2,53.6,64,29.93,10.0,South,11.5,18.4,N/A,,Clear,170,2012-11-10 01:55:00
8:15 PM,66.2,53.6,64,29.93,10.0,South,10.4,-,N/A,,Clear,170,2012-11-10 02:15:00
8:35 PM,66.2,53.6,64,29.93,10.0,South,10.4,16.1,N/A,,Clear,180,2012-11-10 02:35:00
8:56 PM,66.2,53.6,64,29.94,10.0,South,10.4,18.4,N/A,,Clear,180,2012-11-10 02:56:00
9:15 PM,66.2,53.6,64,29.94,10.0,South,11.5,18.4,N/A,,Clear,190,2012-11-10 03:15:00
9:35 PM,66.2,53.6,64,29.93,10.0,South,13.8,18.4,N/A,,Clear,180,2012-11-10 03:35:00
9:56 PM,66.2,53.6,64,29.93,10.0,South,12.7,19.6,N/A,,Clear,180,2012-11-10 03:56:00
10:15 PM,64.4,53.6,68,29.94,10.0,South,11.5,18.4,N/A,,Clear,170,2012-11-10 04:15:00
10:35 PM,64.4,53.6,68,29.94,10.0,South,10.4,-,N/A,,Clear,180,2012-11-10 04:35:00
10:55 PM,64.4,51.8,64,29.94,10.0,South,10.4,-,N/A,,Clear,180,2012-11-10 04:55:00
11:16 PM,64.4,51.8,64,29.94,10.0,South,9.2,-,N/A,,Clear,190,2012-11-10 05:16:00
11:35 PM,64.4,51.8,64,29.94,10.0,South,8.1,18.4,N/A,,Clear,190,2012-11-10 05:35:00
11:55 PM,64.4,51.8,64,29.94,10.0,South,11.5,-,N/A,,Clear,190,2012-11-10 05:55:00